Rbgn^[z[y[W
メイン
   新天体発見情報
     Comet P/2017 A2 = P/2011 A5 (PANSTARRS)
投稿するにはまず登録を

スレッド表示 | 新しいものから 前のトピック | 次のトピック | 下へ
投稿者 スレッド
佐藤裕久
投稿日時: 2017-1-16 21:20
モデレータ
登録日: 2005-6-12
居住地: 日本
投稿: 2505
オンライン
Comet P/2017 A2 = P/2011 A5 (PANSTARRS)

Richard Wainscoat、Eva Lilly、Rob WeryとMarco Micheliの通報によると、1月2日、Haleakalaにある
1.8-m Ritchey-Chretien Pan-STARRS1望遠鏡で得たw-バンド露出からもう一つの彗星を発見した。
この暗い彗星の発見画像は天体のバックグランドから著しい干渉があるが、点のような核状集光とp.a.
およそ300°に向かっておよそ15"延びる尾が見える。
1月3.6日UT、R. J. Wainscoat、M. MicheliとP. Forshayは、Mauna Keaにある3.6-m Canada-France-
Hawaii Telescopeで得た60秒3枚のフォローアップ露出から、この新天体は明らかに彗星状で、p.a. 
300°に向かって35"伸びた細い尾が見えた。測定したg-バンド光度は20.8等であった。
小惑星センターのPCCP webpageに公表後、A. Maury、J.-B. de VanssayとJ.-F. Soulier (0.4-m f/5.4 
Ritchey-Chretien 反射望遠鏡, San Pedro de Atacama, チリ)や佐藤英貴氏(東京都文京区, iTelescope
天文台, 0.51-m f/6.8 アストログラフ+輝度フィルター, Siding Spring, 遠隔操作)らCCD位置観測者
によって彗星状と観測された。
2016年12月4.5日UTと12月24.45-24.47日UTのMt. Lemmonの観測が同定された。その後、2011年1月にMt. 
LemmonとHaleakalaで観測がP/2011 A5に割り当てられ、G. V. Williamsによって同定された。

発見位置は次のとおり、

     2017 UT             R.A. (2000) Decl.       Mag.
     Jan.  2.57733   11 10 09.21   - 0 44 19.0   21.3
           2.58910   11 10 09.24   - 0 44 25.7   21.3
           2.60083   11 10 09.27   - 0 44 32.0   21.1
           2.61262   11 10 09.29   - 0 44 38.5   21.3

2011年1月にP/2011 A5が発見された位置は次のとおり、

     2011 UT             R.A. (2000) Decl.       Mag.   Observer
     Jan. 13.37928    7 46 52.42   +32 51 48.1   20.5   Kowalski
          13.38691    7 46 51.85   +32 51 44.6   20.8     "
          13.39459    7 46 51.27   +32 51 41.4   20.9     "
          13.40218    7 46 50.73   +32 51 38.1   20.8     "
          30.28430    7 28 18.98   +30 26 05.7   20.8   Pan-STARRS1
          30.29870    7 28 18.16   +30 25 57.5   20.7     "
          30.31395    7 28 17.27   +30 25 48.8   20.7     "
          30.32826    7 28 16.45   +30 25 40.7   20.6     "

連結軌道要素と位置推算表は次のとおり、

Orbital elements:
    P/2017 A2 (PANSTARRS)
Epoch 2010 Nov. 20.0 TT = JDT 2455520.5
T 2010 Nov. 1.75373 TT                                  MPCW
q   2.2113937            (2000.0)            P               Q
n   0.17513864     Peri.  133.44468     +0.02345253     -0.97566288
a   3.1638416      Node   313.80783     +0.80763333     +0.14702128
e   0.3010416      Incl.   17.58403     +0.58921846     -0.16268587
P   5.63
From 29 observations 2011 Jan. 13-2017 Jan. 5, mean residual 0".7.

    P/2017 A2 (PANSTARRS)
Epoch 2010 Nov. 20.0 TT = JDT 2455520.5
T 2010 Nov. 1.75373 TT                                  MPCW
q   2.2113937            (2000.0)            P               Q
n   0.17513864     Peri.  133.44468     +0.02345253     -0.97566288
a   3.1638416      Node   313.80783     +0.80763333     +0.14702128
e   0.3010416      Incl.   17.58403     +0.58921846     -0.16268587
P   5.63
From 29 observations 2011 Jan. 13-2017 Jan. 5, mean residual 0".7.

    P/2017 A2 (PANSTARRS)
Epoch 2016 June 21.0 TT = JDT 2457560.5
T 2016 June 22.14286 TT                                 MPCW
q   2.2121519            (2000.0)            P               Q
n   0.17507130     Peri.  133.75508     +0.01919858     -0.97570505
a   3.1646529      Node   313.74714     +0.80839629     +0.14359528
e   0.3009812      Incl.   17.58452     +0.58832547     -0.16546920
P   5.63
From 29 observations 2011 Jan. 13-2017 Jan. 5, mean residual 0".7.

    P/2017 A2 (PANSTARRS)
Epoch 2017 Feb. 16.0 TT = JDT 2457800.5
T 2016 June 22.27559 TT                                 MPCW
q   2.2123957            (2000.0)            P               Q
n   0.17499671     Peri.  133.80103     +0.01845275     -0.97572396
a   3.1655521      Node   313.74535     +0.80852666     +0.14295959
e   0.3011027      Incl.   17.58229     +0.58817016     -0.16590752
P   5.63
From 29 observations 2011 Jan. 13-2017 Jan. 5, mean residual 0".7.

Ephemeris:
    P/2017 A2 (PANSTARRS)
Date    TT    R. A. (2000) Decl.     Delta      r     Elong.  Phase   m1
2016 12 07    10 59 19.9 +03 50 58   2.2248  2.4415    90.5    23.8  19.6
...
2016 12 22    11 07 33.3 +01 08 19   2.0682  2.4793   102.8    22.8  19.5
...
2016 12 30    11 09 43.7 -00 10 56   1.9883  2.5002   109.9    21.7  19.5
...
2017 01 05    11 10 14.4 -01 06 04   1.9315  2.5161   115.5    20.7  19.4
2017 01 06    11 10 13.8 -01 14 51   1.9224  2.5188   116.4    20.5  19.4
2017 01 07    11 10 11.5 -01 23 32   1.9134  2.5215   117.4    20.3  19.4
...
2017 01 13    11 09 22.5 -02 12 55   1.8617  2.5378   123.2    18.9  19.4
...
2017 01 21    11 06 42.8 -03 11 02   1.8005  2.5598   131.4    16.8  19.4
...
2017 02 05    10 57 09.7 -04 32 02   1.7172  2.6021   147.3    11.8  19.3

(CBET 4341、MPEC 2017-A32)
スレッド表示 | 新しいものから 前のトピック | 次のトピック | トップ

投稿するにはまず登録を
 
© 1999 Tsutomu Seki.